| time (UTC) | temp C | wind direction | speed KPH | gust KPH | rain 1hr cm | rain 24hr cm | rain mn cm | humidity % | barometer mb |
| 20260504045857 | 10 | 49 | 0.0 | 3.2 | 0.00 | 0.00 | 0.00 | 52 | 1013.4 |
| 20260504044918 | 10 | 52 | 0.0 | 6.4 | 0.00 | 0.00 | 0.00 | 52 | 1013.4 |
| 20260504043915 | 10 | 57 | 1.6 | 8.0 | 0.00 | 0.00 | 0.00 | 50 | 1013.3 |
| 20260504042935 | 10 | 41 | 3.2 | 8.0 | 0.00 | 0.00 | 0.00 | 50 | 1013.4 |
| 20260504041940 | 10 | 47 | 1.6 | 9.7 | 0.00 | 0.00 | 0.00 | 50 | 1013.3 |
| 20260504041002 | 10 | 52 | 3.2 | 9.7 | 0.00 | 0.00 | 0.00 | 50 | 1013.3 |
| 20260504040024 | 10 | 49 | 4.8 | 9.7 | 0.00 | 0.00 | 0.00 | 50 | 1013.3 |
| 20260504035042 | 10 | 46 | 3.2 | 8.0 | 0.00 | 0.00 | 0.00 | 51 | 1013.3 |
| 20260504032917 | 10 | 53 | 1.6 | 4.8 | 0.00 | 0.00 | 0.00 | 50 | 1013.3 |
| 20260504031852 | 10 | 45 | 1.6 | 6.4 | 0.00 | 0.00 | 0.00 | 50 | 1013.3 |
| 20260504030909 | 10 | 44 | 1.6 | 6.4 | 0.00 | 0.00 | 0.00 | 50 | 1013.4 |
| 20260504025902 | 10 | 40 | 1.6 | 4.8 | 0.00 | 0.00 | 0.00 | 50 | 1013.5 |
| 20260504024916 | 10 | 40 | 1.6 | 4.8 | 0.00 | 0.00 | 0.00 | 49 | 1013.5 |
| 20260504023913 | 10 | 48 | 0.0 | 4.8 | 0.00 | 0.00 | 0.00 | 49 | 1013.5 |
| 20260504022917 | 11 | 45 | 1.6 | 4.8 | 0.00 | 0.00 | 0.00 | 48 | 1013.5 |
| 20260504021920 | 11 | 47 | 3.2 | 8.0 | 0.00 | 0.00 | 0.00 | 47 | 1013.6 |
| 20260504020853 | 11 | 45 | 3.2 | 8.0 | 0.00 | 0.00 | 0.00 | 47 | 1013.6 |
| 20260504015830 | 11 | 51 | 3.2 | 6.4 | 0.00 | 0.00 | 0.00 | 47 | 1013.6 |
| 20260504012659 | 11 | 52 | 1.6 | 3.2 | 0.00 | 0.00 | 0.00 | 47 | 1013.4 |
| 20260504011637 | 11 | 49 | 0.0 | 3.2 | 0.00 | 0.00 | 0.00 | 47 | 1013.5 |
| 20260504010641 | 11 | 49 | 1.6 | 4.8 | 0.00 | 0.00 | 0.00 | 45 | 1013.4 |
| 20260504005608 | 12 | 52 | 1.6 | 6.4 | 0.00 | 0.00 | 0.00 | 44 | 1013.4 |
| 20260504004614 | 12 | 50 | 0.0 | 6.4 | 0.00 | 0.00 | 0.00 | 44 | 1013.3 |
| 20260504003634 | 12 | 44 | 0.0 | 4.8 | 0.00 | 0.00 | 0.00 | 44 | 1013.3 |
| 20260504001534 | 12 | 46 | 0.0 | 6.4 | 0.00 | 0.00 | 0.00 | 44 | 1013.4 |
| 20260504000513 | 12 | 48 | 0.0 | 6.4 | 0.00 | 0.00 | 0.00 | 43 | 1013.3 |
| 20260503235507 | 12 | 49 | 0.0 | 6.4 | 0.00 | 0.00 | 0.00 | 43 | 1013.3 |
| 20260503234457 | 12 | 77 | 1.6 | 6.4 | 0.00 | 0.00 | 0.00 | 44 | 1013.4 |
| 20260503233424 | 12 | 60 | 1.6 | 6.4 | 0.00 | 0.00 | 0.00 | 43 | 1013.4 |
| 20260503232439 | 13 | 54 | 0.0 | 1.6 | 0.00 | 0.00 | 0.00 | 43 | 1013.4 |
| 20260503231410 | 13 | 103 | 1.6 | 8.0 | 0.00 | 0.00 | 0.00 | 43 | 1013.4 |
| 20260503230433 | 13 | 111 | 4.8 | 16.1 | 0.00 | 0.00 | 0.00 | 42 | 1013.5 |
| 20260503225421 | 13 | 104 | 8.0 | 17.7 | 0.00 | 0.00 | 0.00 | 40 | 1013.5 |
| 20260503224412 | 13 | 93 | 3.2 | 17.7 | 0.00 | 0.00 | 0.00 | 41 | 1013.6 |
| 20260503223346 | 13 | 56 | 1.6 | 14.5 | 0.00 | 0.00 | 0.00 | 41 | 1013.6 |
| 20260503222317 | 13 | 103 | 4.8 | 14.5 | 0.00 | 0.00 | 0.00 | 41 | 1013.7 |
| 20260503221319 | 13 | 101 | 3.2 | 11.3 | 0.00 | 0.00 | 0.00 | 41 | 1013.7 |
| 20260503220312 | 13 | 37 | 3.2 | 11.3 | 0.00 | 0.00 | 0.00 | 39 | 1013.7 |
| 20260503215301 | 13 | 96 | 3.2 | 11.3 | 0.00 | 0.00 | 0.00 | 42 | 1013.7 |
| 20260503214247 | 13 | 90 | 4.8 | 12.9 | 0.00 | 0.00 | 0.00 | 39 | 1013.7 |
| 20260503212130 | 14 | 94 | 6.4 | 22.5 | 0.00 | 0.00 | 0.00 | 40 | 1013.5 |
| 20260503211104 | 14 | 105 | 9.7 | 22.5 | 0.00 | 0.00 | 0.00 | 38 | 1013.6 |
| 20260503210107 | 14 | 91 | 9.7 | 22.5 | 0.00 | 0.00 | 0.00 | 42 | 1013.6 |
| 20260503205044 | 14 | 90 | 8.0 | 19.3 | 0.00 | 0.00 | 0.00 | 41 | 1013.7 |
| 20260503204036 | 14 | 94 | 4.8 | 16.1 | 0.00 | 0.00 | 0.00 | 41 | 1013.9 |
| 20260503203003 | 13 | 88 | 8.0 | 17.7 | 0.00 | 0.00 | 0.00 | 40 | 1014.1 |
| 20260503195632 | 13 | 86 | 6.4 | 16.1 | 0.00 | 0.00 | 0.00 | 42 | 1014.4 |
| 20260503194638 | 12 | 98 | 4.8 | 25.7 | 0.00 | 0.00 | 0.00 | 42 | 1014.5 |
| 20260503193605 | 13 | 110 | 4.8 | 14.5 | 0.00 | 0.00 | 0.00 | 42 | 1014.7 |
| 20260503192542 | 12 | 98 | 6.4 | 19.3 | 0.00 | 0.00 | 0.00 | 41 | 1014.7 |
| 20260503191521 | 13 | 121 | 6.4 | 27.4 | 0.00 | 0.00 | 0.00 | 41 | 1014.8 |
| 20260503190533 | 13 | 98 | 6.4 | 27.4 | 0.00 | 0.00 | 0.00 | 43 | 1015.1 |
| 20260503184414 | 12 | 97 | 6.4 | 19.3 | 0.00 | 0.00 | 0.00 | 42 | 1015.4 |
| 20260503181113 | 12 | 123 | 6.4 | 14.5 | 0.00 | 0.00 | 0.00 | 48 | 1015.7 |
| 20260503180045 | 12 | 103 | 4.8 | 20.9 | 0.00 | 0.00 | 0.00 | 43 | 1015.7 |
| 20260503175038 | 12 | 101 | 8.0 | 20.9 | 0.00 | 0.00 | 0.00 | 44 | 1015.8 |
| 20260503172934 | 12 | 88 | 8.0 | 20.9 | 0.00 | 0.00 | 0.00 | 43 | 1016.1 |
| 20260503171901 | 12 | 111 | 8.0 | 17.7 | 0.00 | 0.00 | 0.00 | 43 | 1016.2 |
| 20260503170908 | 12 | 95 | 4.8 | 11.3 | 0.00 | 0.00 | 0.00 | 45 | 1016.2 |
| 20260503150638 | 9 | 107 | 8.0 | 22.5 | 0.00 | 0.00 | 0.00 | 47 | 1017.2 |
| 20260503130426 | 6 | 96 | 4.8 | 16.1 | 0.00 | 0.00 | 0.00 | 62 | 1017.4 |
| 20260503080707 | 2 | 102 | 0.0 | 3.2 | 0.00 | 0.03 | 0.00 | 1 | 1015.7 |
| 20260503071332 | 2 | 105 | 0.0 | 1.6 | 0.00 | 0.03 | 0.00 | 1 | 1015.4 |